FW0071 Weather Reports


time (UTC)temp
C
wind
direction
speed
KPH
gust
KPH
rain 1hr
cm
rain 24hr
cm
rain mn
cm
humidity
%
barometer
mb
20260508033055 10 130 0.0 0.0 0.00 0.00 0.00 87 1011.0
20260508031538 10 101 0.0 0.0 0.00 0.00 0.00 87 1011.1
20260508030036 11 110 0.0 1.6 0.00 0.00 0.00 87 1011.3
20260508024536 11 109 0.0 0.0 0.00 0.00 0.00 87 1011.4
20260508023038 11 132 0.0 0.0 0.00 0.00 0.00 87 1011.3
20260508021535 11 121 0.0 0.0 0.00 0.00 0.00 87 1011.4
20260508020031 11 121 0.0 0.0 0.00 0.00 0.00 87 1011.5
20260508014529 11 121 0.0 0.0 0.00 0.00 0.00 86 1011.7
20260508013027 11 121 0.0 1.6 0.00 0.00 0.00 84 1011.9
20260508011525 11 121 0.0 1.6 0.00 0.00 0.00 83 1011.9
20260508010027 11 121 0.0 0.0 0.00 0.00 0.00 82 1011.8
20260508004522 11 111 0.0 0.0 0.00 0.00 0.00 82 1011.9
20260508003023 11 107 0.0 0.0 0.00 0.00 0.00 82 1012.1
20260508001537 11 111 0.0 0.0 0.00 0.00 0.00 83 1012.1
20260508000017 11 122 0.0 0.0 0.00 0.00 0.00 83 1012.2
20260507234517 11 109 0.0 0.0 0.00 0.00 0.00 82 1012.4
20260507233023 12 112 0.0 0.0 0.00 0.00 0.00 82 1012.4
20260507231514 12 126 0.0 0.0 0.00 0.00 0.00 82 1012.5
20260507230023 12 111 0.0 1.6 0.00 0.00 0.00 82 1012.6
20260507224520 12 132 0.0 0.0 0.00 0.00 0.00 82 1012.8
20260507223007 13 132 0.0 0.0 0.00 0.00 0.00 81 1012.8
20260507221506 13 106 0.0 0.0 0.00 0.00 0.00 79 1012.7
20260507220002 13 186 0.0 0.0 0.00 0.00 0.00 79 1012.4
20260507214502 13 245 0.0 0.0 0.00 0.00 0.00 79 1012.4
20260507213001 13 245 0.0 0.0 0.00 0.00 0.00 77 1012.3
20260507211603 13 252 0.0 0.0 0.00 0.00 0.00 76 1012.3
20260507210100 13 252 0.0 0.0 0.00 0.00 0.00 76 1012.1
20260507204602 13 252 0.0 0.0 0.00 0.00 0.00 77 1012.0
20260507203102 13 252 0.0 0.0 0.00 0.00 0.00 77 1011.7
20260507201558 13 252 0.0 0.0 0.00 0.00 0.00 77 1011.6
20260507200058 14 252 0.0 0.0 0.00 0.00 0.00 76 1011.5
20260507194607 14 252 0.0 0.0 0.00 0.00 0.00 75 1011.4
20260507193059 15 252 0.0 0.0 0.00 0.00 0.00 73 1011.2
20260507191603 15 252 0.0 1.6 0.00 0.00 0.00 71 1010.9
20260507190058 16 252 0.0 0.0 0.00 0.00 0.00 70 1010.8
20260507184556 16 261 0.0 1.6 0.00 0.00 0.00 68 1010.5
20260507183106 16 203 0.0 4.8 0.00 0.00 0.00 66 1010.3
20260507181555 17 213 0.0 8.0 0.00 0.00 0.00 65 1010.2
20260507180057 17 292 0.0 8.0 0.00 0.00 0.00 64 1010.0
20260507174555 17 201 0.0 4.8 0.00 0.00 0.00 63 1009.9
20260507173101 18 191 0.0 12.9 0.00 0.00 0.00 62 1009.8
20260507171555 18 183 0.0 4.8 0.00 0.00 0.00 60 1009.6
20260507170055 19 234 1.6 8.0 0.00 0.00 0.00 58 1009.4
20260507164552 20 250 3.2 11.3 0.00 0.00 0.00 55 1009.2
20260507163056 20 203 0.0 3.2 0.00 0.00 0.00 49 1009.1
20260507161555 21 200 0.0 3.2 0.00 0.00 0.00 47 1008.9
20260507160052 21 180 0.0 4.8 0.00 0.00 0.00 42 1008.8
20260507154551 22 94 0.0 0.0 0.00 0.00 0.00 39 1008.7
20260507153101 22 200 0.0 4.8 0.00 0.00 0.00 39 1008.7
20260507151546 22 65 0.0 0.0 0.00 0.00 0.00 41 1008.7
20260507150045 21 145 0.0 6.4 0.00 0.00 0.00 43 1008.9
20260507144544 21 217 0.0 6.4 0.00 0.00 0.00 45 1009.1
20260507143051 21 225 1.6 11.3 0.00 0.00 0.00 47 1009.3
20260507141539 21 151 4.8 16.1 0.00 0.00 0.00 47 1009.4
20260507140038 21 73 4.8 11.3 0.00 0.00 0.00 47 1009.5
20260507134535 21 207 0.0 6.4 0.00 0.00 0.00 47 1009.7
20260507133042 22 211 0.0 9.7 0.00 0.00 0.00 46 1009.9
20260507131537 21 137 0.0 9.7 0.00 0.00 0.00 45 1010.0
20260507130034 21 146 0.0 6.4 0.00 0.00 0.00 46 1010.0
20260507124527 21 169 0.0 4.8 0.00 0.00 0.00 46 1010.5
20260507123024 21 161 0.0 0.0 0.00 0.00 0.00 46 1010.6
20260507121521 20 167 0.0 0.0 0.00 0.00 0.00 48 1010.7
20260507120016 20 158 0.0 3.2 0.00 0.00 0.00 48 1010.8
20260507114512 20 125 0.0 3.2 0.00 0.00 0.00 54 1011.1
20260507113012 20 129 0.0 1.6 0.00 0.00 0.00 55 1011.4
20260507111516 19 111 0.0 0.0 0.00 0.00 0.00 56 1011.6
20260507110008 19 145 0.0 9.7 0.00 0.00 0.00 57 1011.8
20260507104506 18 110 0.0 0.0 0.00 0.00 0.00 58 1012.0
20260507103004 18 120 0.0 3.2 0.00 0.00 0.00 57 1012.1
20260507101502 18 165 0.0 0.0 0.00 0.00 0.00 60 1012.1
20260507100110 17 152 0.0 0.0 0.00 0.00 0.00 64 1012.3
20260507094601 17 153 0.0 0.0 0.00 0.00 0.00 63 1012.4
20260507093056 17 229 0.0 0.0 0.00 0.00 0.00 67 1012.4
20260507091552 16 169 0.0 0.0 0.00 0.00 0.00 66 1012.5
20260507090056 16 134 0.0 3.2 0.00 0.00 0.00 68 1012.4
20260507084553 16 120 0.0 0.0 0.00 0.00 0.00 71 1012.5
20260507083045 15 117 0.0 0.0 0.00 0.00 0.00 74 1012.5
20260507081539 15 148 0.0 4.8 0.00 0.00 0.00 75 1012.4
20260507080045 14 121 0.0 0.0 0.00 0.00 0.00 75 1012.5
20260507074534 13 115 0.0 0.0 0.00 0.00 0.00 77 1012.5
20260507073039 13 100 0.0 6.4 0.00 0.00 0.00 76 1012.6
20260507071530 13 111 0.0 0.0 0.00 0.00 0.00 78 1012.5
20260507070027 12 126 0.0 4.8 0.00 0.00 0.00 79 1012.4
20260507064526 12 115 0.0 0.0 0.00 0.00 0.00 80 1012.4
20260507063026 12 157 0.0 4.8 0.00 0.00 0.00 81 1012.3
20260507061523 11 136 0.0 4.8 0.00 0.00 0.00 82 1012.4
20260507060023 11 105 0.0 0.0 0.00 0.00 0.00 83 1012.3
20260507054521 10 93 0.0 0.0 0.00 0.00 0.00 85 1012.2
20260507053020 10 157 0.0 0.0 0.00 0.00 0.00 85 1012.1
20260507051518 10 159 0.0 0.0 0.00 0.00 0.00 84 1012.0
20260507050036 10 146 0.0 0.0 0.00 0.00 0.00 84 1011.8
20260507044515 10 111 0.0 0.0 0.00 0.00 0.00 84 1011.6
20260507043014 10 111 0.0 0.0 0.00 0.00 0.00 83 1011.8
20260507041514 10 130 0.0 0.0 0.00 0.00 0.00 83 1011.7
20260507040013 10 110 0.0 0.0 0.00 0.00 0.00 83 1011.7
20260507034512 10 115 0.0 0.0 0.00 0.00 0.00 83 1011.7